When you browse on this site, cookies collect data to enhance your experience and personalize the content and advertising you see.
Visit our Privacy Policy to learn more. By continuing to use the site, you agree to this use of cookies and data.
  • In Austria
  • List of Countries
  • For 7 days
  • Water Temperature
  • Weather Map
  • News
  • Weather Widgets
  • user-avatar
    Login

    Hourly Weather Anif

    Today, 21 October, Monday

    Time Temperature Precipitation Wind Pressure Humidity
    00:00 +12°C° 0 mm 3 mps 692 mmHg 76%
    01:00 +13°C° 0 mm 2 mps 692 mmHg 76%
    02:00 +13°C° 0 mm 2 mps 692 mmHg 77%
    03:00 +12°C° 0 mm 2 mps 691 mmHg 78%
    04:00 +12°C° 0 mm 2 mps 691 mmHg 79%
    05:00 +13°C° 0 mm 2 mps 692 mmHg 78%
    06:00 +13°C° 0 mm 2 mps 692 mmHg 78%
    07:00 +13°C° 0 mm 2 mps 693 mmHg 78%
    08:00 +14°C° 0 mm 2 mps 693 mmHg 75%
    09:00 +16°C° 0 mm 2 mps 694 mmHg 72%
    10:00 +18°C° 0 mm 1 mps 695 mmHg 69%
    11:00 +19°C° 0 mm 1 mps 695 mmHg 67%
    12:00 +20°C° 0 mm 1 mps 695 mmHg 65%
    13:00 +21°C° 0 mm 1 mps 696 mmHg 63%
    14:00 +20°C° 0 mm 1 mps 695 mmHg 69%
    15:00 +19°C° 0 mm 1 mps 695 mmHg 75%
    16:00 +18°C° 0 mm 1 mps 695 mmHg 80%
    17:00 +16°C° 0 mm 1 mps 695 mmHg 85%
    18:00 +13°C° 0 mm 0 mps 695 mmHg 90%
    19:00 +11°C° 0 mm 0 mps 695 mmHg 95%
    20:00 +11°C° 0 mm 0 mps 695 mmHg 95%
    21:00 +11°C° 0 mm 0 mps 695 mmHg 95%
    22:00 +10°C° 0 mm 0 mps 695 mmHg 96%
    23:00 +10°C° 0 mm 0 mps 695 mmHg 96%

    Tomorrow, 22 October, Tuesday

    Time Temperature Precipitation Wind Pressure Humidity
    00:00 +10°C° 0 mm 0 mps 696 mmHg 95%
    01:00 +10°C° 0 mm 0 mps 696 mmHg 95%
    02:00 +10°C° 0 mm 0 mps 696 mmHg 95%
    03:00 +10°C° 0 mm 0 mps 696 mmHg 95%
    04:00 +10°C° 0 mm 0 mps 696 mmHg 95%
    05:00 +11°C° 0 mm 0 mps 696 mmHg 95%
    06:00 +11°C° 0 mm 0 mps 697 mmHg 95%
    07:00 +11°C° 0 mm 0 mps 697 mmHg 95%
    08:00 +12°C° 0 mm 0 mps 697 mmHg 89%
    09:00 +14°C° 0 mm 0 mps 697 mmHg 84%
    10:00 +15°C° 0 mm 0 mps 697 mmHg 78%
    11:00 +18°C° 0 mm 1 mps 697 mmHg 75%
    12:00 +18°C° 0 mm 1 mps 697 mmHg 72%
    13:00 +19°C° 0 mm 1 mps 697 mmHg 69%
    14:00 +18°C° 0 mm 1 mps 697 mmHg 74%
    15:00 +18°C° 0 mm 1 mps 696 mmHg 79%
    16:00 +16°C° 0 mm 1 mps 696 mmHg 84%
    17:00 +15°C° 0 mm 1 mps 696 mmHg 88%
    18:00 +14°C° 0 mm 1 mps 696 mmHg 92%
    19:00 +12°C° 0 mm 1 mps 696 mmHg 95%
    20:00 +12°C° 0 mm 1 mps 696 mmHg 95%
    21:00 +12°C° 0 mm 1 mps 696 mmHg 95%
    22:00 +11°C° 0 mm 1 mps 696 mmHg 94%
    23:00 +11°C° 0 mm 1 mps 695 mmHg 93%

    Day after tomorrow, 23 October, Wednesday

    Time Temperature Precipitation Wind Pressure Humidity
    00:00 +11°C° 0 mm 1 mps 695 mmHg 91%
    01:00 +10°C° 0 mm 1 mps 695 mmHg 90%
    02:00 +10°C° 0 mm 1 mps 694 mmHg 88%
    03:00 +10°C° 0 mm 1 mps 694 mmHg 86%
    04:00 +9°C° 0 mm 1 mps 694 mmHg 84%
    05:00 +9°C° 0 mm 1 mps 694 mmHg 82%
    06:00 +9°C° 0 mm 1 mps 693 mmHg 80%
    07:00 +9°C° 0 mm 1 mps 693 mmHg 78%
    08:00 +12°C° 0 mm 1 mps 693 mmHg 72%
    09:00 +14°C° 0 mm 1 mps 694 mmHg 66%
    10:00 +16°C° 0 mm 1 mps 694 mmHg 61%
    11:00 +18°C° 0 mm 1 mps 694 mmHg 59%
    12:00 +20°C° 0 mm 1 mps 693 mmHg 57%
    13:00 +21°C° 0 mm 1 mps 693 mmHg 55%
    14:00 +20°C° 0 mm 1 mps 693 mmHg 62%
    15:00 +19°C° 0 mm 1 mps 692 mmHg 69%
    16:00 +18°C° 0 mm 1 mps 692 mmHg 76%
    17:00 +15°C° 0 mm 1 mps 692 mmHg 77%
    18:00 +14°C° 0 mm 2 mps 691 mmHg 78%
    19:00 +12°C° 0 mm 2 mps 691 mmHg 79%
    20:00 +12°C° 0 mm 2 mps 691 mmHg 77%
    21:00 +10°C° 0 mm 2 mps 691 mmHg 75%
    22:00 +10°C° 0 mm 2 mps 691 mmHg 74%
    23:00 +10°C° 0 mm 2 mps 690 mmHg 72%

    24 October, Thursday

    Time Temperature Precipitation Wind Pressure Humidity
    00:00 +9°C° 0 mm 2 mps 690 mmHg 69%
    01:00 +9°C° 0 mm 2 mps 690 mmHg 67%
    02:00 +9°C° 0 mm 2 mps 690 mmHg 66%
    03:00 +9°C° 0 mm 2 mps 689 mmHg 65%
    04:00 +9°C° 0 mm 2 mps 689 mmHg 63%
    05:00 +9°C° 0 mm 2 mps 689 mmHg 62%
    06:00 +9°C° 0 mm 2 mps 689 mmHg 62%
    07:00 +10°C° 0 mm 1 mps 689 mmHg 61%
    08:00 +12°C° 0 mm 1 mps 690 mmHg 58%
    09:00 +15°C° 0 mm 1 mps 690 mmHg 55%
    10:00 +18°C° 0 mm 1 mps 691 mmHg 52%
    11:00 +19°C° 0 mm 1 mps 691 mmHg 51%
    12:00 +20°C° 0 mm 1 mps 691 mmHg 50%
    13:00 +21°C° 0 mm 1 mps 691 mmHg 50%
    14:00 +18°C° 0 mm 0 mps 690 mmHg 58%
    15:00 +17°C° 0 mm 0 mps 690 mmHg 65%
    16:00 +15°C° 0 mm 0 mps 690 mmHg 73%
    17:00 +14°C° 0 mm 0 mps 690 mmHg 76%
    18:00 +12°C° 0 mm 0 mps 690 mmHg 79%
    19:00 +12°C° 0 mm 1 mps 690 mmHg 82%
    20:00 +12°C° 0 mm 1 mps 691 mmHg 83%
    21:00 +11°C° 0 mm 1 mps 691 mmHg 84%
    22:00 +11°C° 0 mm 1 mps 691 mmHg 85%
    23:00 +11°C° 0 mm 1 mps 692 mmHg 87%

    25 October, Friday

    Time Temperature Precipitation Wind Pressure Humidity
    00:00 +10°C° 0 mm 1 mps 692 mmHg 89%
    01:00 +10°C° 0 mm 1 mps 692 mmHg 91%
    02:00 +10°C° 0 mm 1 mps 693 mmHg 93%
    03:00 +10°C° 0 mm 1 mps 693 mmHg 94%
    04:00 +10°C° 0 mm 1 mps 693 mmHg 95%
    05:00 +10°C° 0 mm 1 mps 694 mmHg 94%
    06:00 +10°C° 0 mm 0 mps 694 mmHg 94%
    07:00 +10°C° 0 mm 0 mps 695 mmHg 93%
    08:00 +11°C° 0 mm 0 mps 696 mmHg 89%
    09:00 +12°C° 0 mm 0 mps 696 mmHg 86%
    10:00 +13°C° 0 mm 0 mps 697 mmHg 82%
    11:00 +14°C° 0 mm 0 mps 697 mmHg 78%
    12:00 +16°C° 0 mm 1 mps 697 mmHg 73%
    13:00 +18°C° 0 mm 1 mps 697 mmHg 69%
    14:00 +16°C° 0 mm 1 mps 697 mmHg 74%
    15:00 +15°C° 0 mm 1 mps 696 mmHg 79%
    16:00 +15°C° 0 mm 1 mps 696 mmHg 84%
    17:00 +13°C° 0 mm 1 mps 696 mmHg 88%
    18:00 +12°C° 0 mm 1 mps 696 mmHg 92%
    19:00 +11°C° 0 mm 1 mps 696 mmHg 96%
    20:00 +10°C° 0 mm 1 mps 696 mmHg 95%
    21:00 +10°C° 0 mm 1 mps 696 mmHg 95%
    22:00 +10°C° 0 mm 1 mps 696 mmHg 95%
    23:00 +10°C° 0 mm 1 mps 696 mmHg 94%

    26 October, Saturday

    Time Temperature Precipitation Wind Pressure Humidity
    00:00 +10°C° 0 mm 1 mps 695 mmHg 94%
    01:00 +10°C° 0 mm 1 mps 695 mmHg 93%
    02:00 +9°C° 0 mm 1 mps 695 mmHg 92%
    03:00 +9°C° 0 mm 1 mps 695 mmHg 91%
    04:00 +9°C° 0 mm 1 mps 695 mmHg 91%
    05:00 +9°C° 0 mm 1 mps 695 mmHg 90%
    06:00 +9°C° 0 mm 1 mps 695 mmHg 89%
    07:00 +9°C° 0 mm 1 mps 695 mmHg 88%
    08:00 +11°C° 0 mm 1 mps 695 mmHg 80%
    09:00 +13°C° 0 mm 0 mps 696 mmHg 72%
    10:00 +16°C° 0 mm 0 mps 697 mmHg 64%
    11:00 +17°C° 0 mm 0 mps 697 mmHg 63%
    12:00 +19°C° 0 mm 1 mps 697 mmHg 61%
    13:00 +20°C° 0 mm 1 mps 697 mmHg 60%
    14:00 +19°C° 0 mm 1 mps 696 mmHg 67%
    15:00 +18°C° 0 mm 1 mps 696 mmHg 75%
    16:00 +15°C° 0 mm 0 mps 696 mmHg 83%
    17:00 +13°C° 0 mm 0 mps 696 mmHg 86%
    18:00 +12°C° 0 mm 0 mps 696 mmHg 90%
    19:00 +10°C° 0 mm 0 mps 696 mmHg 94%
    20:00 +10°C° 0 mm 0 mps 696 mmHg 93%
    21:00 +10°C° 0 mm 0 mps 696 mmHg 93%
    22:00 +11°C° 0 mm 1 mps 697 mmHg 93%
    23:00 +11°C° 0 mm 1 mps 696 mmHg 92%

    27 October, Sunday

    Time Temperature Precipitation Wind Pressure Humidity
    00:00 +10°C° 0 mm 1 mps 696 mmHg 92%
    01:00 +10°C° 0 mm 1 mps 696 mmHg 91%
    02:00 +10°C° 0 mm 1 mps 696 mmHg 90%
    03:00 +10°C° 0 mm 1 mps 696 mmHg 88%
    04:00 +10°C° 0 mm 1 mps 696 mmHg 87%
    05:00 +10°C° 0 mm 1 mps 696 mmHg 86%
    06:00 +10°C° 0 mm 1 mps 695 mmHg 85%
    07:00 +9°C° 0 mm 1 mps 695 mmHg 84%
    08:00 +12°C° 0 mm 1 mps 696 mmHg 78%
    09:00 +13°C° 0 mm 0 mps 696 mmHg 71%
    10:00 +16°C° 0 mm 0 mps 696 mmHg 64%
    11:00 +17°C° 0 mm 0 mps 696 mmHg 62%
    12:00 +20°C° 0 mm 1 mps 696 mmHg 60%
    13:00 +21°C° 0 mm 1 mps 696 mmHg 58%
    14:00 +20°C° 0 mm 1 mps 696 mmHg 65%
    15:00 +18°C° 0 mm 1 mps 695 mmHg 73%
    16:00 +16°C° 0 mm 1 mps 695 mmHg 80%
    17:00 +15°C° 0 mm 1 mps 695 mmHg 84%
    18:00 +13°C° 0 mm 1 mps 695 mmHg 87%
    19:00 +12°C° 0 mm 1 mps 695 mmHg 91%
    20:00 +12°C° 0 mm 1 mps 695 mmHg 90%
    21:00 +12°C° 0 mm 1 mps 695 mmHg 89%
    22:00 +11°C° 0 mm 1 mps 695 mmHg 87%
    23:00 +11°C° 0 mm 1 mps 694 mmHg 86%
    Show more